Tracking 25734 objects as of 27-May-2022
HD Live streaming from Space Station
objects crossing your sky now

COSMOS 1375

Track COSMOS 1375 now!
10-day predictions
COSMOS 1375 is classified as:


NORAD ID: 13259
Int'l Code: 1982-055A
Perigee: 940.6 km
Apogee: 977.5 km
Inclination: 65.8 °
Period: 104.1 minutes
Semi major axis: 7330 km
RCS: 0.955 m2 (medium)
Launch date: June 6, 1982
Source: Commonwealth of Independent States (former USSR) (CIS)
Launch site: PLESETSK MISSILE AND SPACE COMPLEX (PKMTR)
aabbcc
Your satellite tracking list
Your tracking list is empty




NASA's NSSDC Master Catalog

Two Line Element Set (TLE):
1 13259U 82055A   22146.75964248  .00000253  00000-0  30425-3 0  9997
2 13259  65.8303 164.0954 0025178 214.7618 145.1805 13.83384854  8917
Source of the keplerian elements: AFSPC